owner,sensor,date,latitude,longitude,vertical_datum,wind_speed,wind_to_direction,wind_speed_of_gust,qcFlag 
LUMCON,ioos:station:LUMCON:103:1,2011-02-01T00:00:00Z,30.1889,-90.1683,1.0,3.6,110.0,,'1111122,1111122,1111122' 
LUMCON,ioos:station:LUMCON:103:1,2011-02-01T01:00:00Z,30.1889,-90.1683,1.0,4.1,120.0,,'1111122,1111122,1111122' 
LUMCON,ioos:station:LUMCON:103:1,2011-02-01T02:00:00Z,30.1889,-90.1683,1.0,5.1,120.0,,'1111122,1111122,1111122' 
LUMCON,ioos:station:LUMCON:103:1,2011-02-01T03:00:00Z,30.1889,-90.1683,1.0,5.1,120.0,,'1111122,1111122,1111122' 
LUMCON,ioos:station:LUMCON:103:1,2011-02-01T04:00:00Z,30.1889,-90.1683,1.0,6.2,110.0,,'1111122,1111122,1111122' 
LUMCON,ioos:station:LUMCON:103:1,2011-02-01T05:00:00Z,30.1889,-90.1683,1.0,5.7,110.0,,'1111122,1111122,1111122' 
LUMCON,ioos:station:LUMCON:103:1,2011-02-01T06:00:00Z,30.1889,-90.1683,1.0,5.1,110.0,,'1111122,1111122,1111122' 
LUMCON,ioos:station:LUMCON:103:1,2011-02-01T07:00:00Z,30.1889,-90.1683,1.0,4.6,110.0,,'1111122,1111122,1111122' 
LUMCON,ioos:station:LUMCON:103:1,2011-02-01T08:00:00Z,30.1889,-90.1683,1.0,5.1,100.0,,'1111122,1111122,1111122' 
LUMCON,ioos:station:LUMCON:103:1,2011-02-01T09:00:00Z,30.1889,-90.1683,1.0,5.1,110.0,,'1111122,1111122,1111122' 
LUMCON,ioos:station:LUMCON:103:1,2011-02-01T10:00:00Z,30.1889,-90.1683,1.0,5.1,110.0,,'1111122,1111122,1111122' 
LUMCON,ioos:station:LUMCON:103:1,2011-02-01T11:00:00Z,30.1889,-90.1683,1.0,6.2,120.0,,'1111122,1111122,1111122' 
LUMCON,ioos:station:LUMCON:103:1,2011-02-01T12:00:00Z,30.1889,-90.1683,1.0,6.2,120.0,,'1111122,1111122,1111122' 
LUMCON,ioos:station:LUMCON:103:1,2011-02-01T13:00:00Z,30.1889,-90.1683,1.0,5.1,120.0,,'1111122,1111122,1111122' 
LUMCON,ioos:station:LUMCON:103:1,2011-02-01T14:00:00Z,30.1889,-90.1683,1.0,7.2,130.0,,'1111122,1111122,1111122' 
LUMCON,ioos:station:LUMCON:103:1,2011-02-01T21:00:00Z,30.1889,-90.1683,1.0,6.2,280.0,,'1111122,1111122,1111122' 
LUMCON,ioos:station:LUMCON:103:1,2011-02-01T22:00:00Z,30.1889,-90.1683,1.0,7.7,280.0,,'1111122,1111122,1111122' 
LUMCON,ioos:station:LUMCON:103:1,2011-02-01T23:00:00Z,30.1889,-90.1683,1.0,8.7,290.0,,'1111122,1111122,1111122' 
LUMCON,ioos:station:LUMCON:103:1,2011-02-02T00:00:00Z,30.1889,-90.1683,1.0,7.7,290.0,,'1111122,1111122,1111122' 
LUMCON,ioos:station:LUMCON:103:1,2011-02-02T01:00:00Z,30.1889,-90.1683,1.0,7.7,310.0,,'1111122,1111122,1111122' 
LUMCON,ioos:station:LUMCON:103:1,2011-02-02T02:00:00Z,30.1889,-90.1683,1.0,7.2,310.0,,'1111122,1111122,1111122' 
LUMCON,ioos:station:LUMCON:103:1,2011-02-02T03:00:00Z,30.1889,-90.1683,1.0,7.7,310.0,,'1111122,1111122,1111122' 
LUMCON,ioos:station:LUMCON:103:1,2011-02-02T04:00:00Z,30.1889,-90.1683,1.0,8.2,330.0,,'1111122,1111122,1111122' 
LUMCON,ioos:station:LUMCON:103:1,2011-02-02T05:00:00Z,30.1889,-90.1683,1.0,10.3,320.0,,'1111122,1111122,1111122' 
LUMCON,ioos:station:LUMCON:103:1,2011-02-02T06:00:00Z,30.1889,-90.1683,1.0,10.3,330.0,,'1111122,1111122,1111122' 
LUMCON,ioos:station:LUMCON:103:1,2011-02-02T07:00:00Z,30.1889,-90.1683,1.0,8.7,330.0,,'1111122,1111122,1111122' 
LUMCON,ioos:station:LUMCON:103:1,2011-02-02T08:00:00Z,30.1889,-90.1683,1.0,9.8,340.0,,'1111122,1111122,1111122' 
LUMCON,ioos:station:LUMCON:103:1,2011-02-02T09:00:00Z,30.1889,-90.1683,1.0,8.2,340.0,,'1111122,1111122,1111122' 
LUMCON,ioos:station:LUMCON:103:1,2011-02-02T10:00:00Z,30.1889,-90.1683,1.0,8.2,360.0,,'1111122,1111122,1111122' 
LUMCON,ioos:station:LUMCON:103:1,2011-02-02T11:00:00Z,30.1889,-90.1683,1.0,8.7,350.0,,'1111122,1111122,1111122' 
LUMCON,ioos:station:LUMCON:103:1,2011-02-02T12:00:00Z,30.1889,-90.1683,1.0,8.7,340.0,,'1111122,1111122,1111122' 
LUMCON,ioos:station:LUMCON:103:1,2011-02-02T13:00:00Z,30.1889,-90.1683,1.0,8.7,350.0,,'1111122,1111122,1111122' 
LUMCON,ioos:station:LUMCON:103:1,2011-02-02T14:00:00Z,30.1889,-90.1683,1.0,9.8,340.0,,'1111122,1111122,1111122' 
LUMCON,ioos:station:LUMCON:103:1,2011-02-02T15:00:00Z,30.1889,-90.1683,1.0,8.7,350.0,,'1111122,1111122,1111122' 
LUMCON,ioos:station:LUMCON:103:1,2011-02-02T16:00:00Z,30.1889,-90.1683,1.0,7.2,360.0,,'1111122,1111122,1111122' 
LUMCON,ioos:station:LUMCON:103:1,2011-02-02T17:00:00Z,30.1889,-90.1683,1.0,7.7,320.0,,'1111122,1111122,1111122' 
LUMCON,ioos:station:LUMCON:103:1,2011-02-02T18:00:00Z,30.1889,-90.1683,1.0,7.7,360.0,,'1111122,1111122,1111122' 
LUMCON,ioos:station:LUMCON:103:1,2011-02-02T19:00:00Z,30.1889,-90.1683,1.0,7.2,360.0,,'1111122,1111122,1111122' 
LUMCON,ioos:station:LUMCON:103:1,2011-02-02T20:00:00Z,30.1889,-90.1683,1.0,8.2,360.0,,'1111122,1111122,1111122' 
LUMCON,ioos:station:LUMCON:103:1,2011-02-02T21:00:00Z,30.1889,-90.1683,1.0,8.2,10.0,,'1111122,1111122,1111122' 
LUMCON,ioos:station:LUMCON:103:1,2011-02-02T22:00:00Z,30.1889,-90.1683,1.0,8.7,10.0,,'1111122,1111122,1111122' 
LUMCON,ioos:station:LUMCON:103:1,2011-02-02T23:00:00Z,30.1889,-90.1683,1.0,7.7,360.0,,'1111122,1111122,1111122' 
LUMCON,ioos:station:LUMCON:103:1,2011-02-03T00:00:00Z,30.1889,-90.1683,1.0,9.3,30.0,,'1111122,1111122,1111122' 
LUMCON,ioos:station:LUMCON:103:1,2011-02-03T01:00:00Z,30.1889,-90.1683,1.0,9.8,20.0,,'1111122,1111122,1111122' 
LUMCON,ioos:station:LUMCON:103:1,2011-02-03T02:00:00Z,30.1889,-90.1683,1.0,8.2,360.0,,'1111122,1111122,1111122' 
LUMCON,ioos:station:LUMCON:103:1,2011-02-03T03:00:00Z,30.1889,-90.1683,1.0,7.7,20.0,,'1111122,1111122,1111122' 
LUMCON,ioos:station:LUMCON:103:1,2011-02-03T04:00:00Z,30.1889,-90.1683,1.0,8.2,30.0,,'1111122,1111122,1111122' 
LUMCON,ioos:station:LUMCON:103:1,2011-02-03T05:00:00Z,30.1889,-90.1683,1.0,7.2,10.0,,'1111122,1111122,1111122' 
LUMCON,ioos:station:LUMCON:103:1,2011-02-03T06:00:00Z,30.1889,-90.1683,1.0,7.2,10.0,,'1111122,1111122,1111122' 
LUMCON,ioos:station:LUMCON:103:1,2011-02-03T07:00:00Z,30.1889,-90.1683,1.0,7.7,10.0,,'1111122,1111122,1111122' 
LUMCON,ioos:station:LUMCON:103:1,2011-02-03T08:00:00Z,30.1889,-90.1683,1.0,7.2,20.0,,'1111122,1111122,1111122' 
LUMCON,ioos:station:LUMCON:103:1,2011-02-03T09:00:00Z,30.1889,-90.1683,1.0,6.7,20.0,,'1111122,1111122,1111122' 
LUMCON,ioos:station:LUMCON:103:1,2011-02-03T10:00:00Z,30.1889,-90.1683,1.0,7.2,40.0,,'1111122,1111122,1111122' 
LUMCON,ioos:station:LUMCON:103:1,2011-02-03T12:00:00Z,30.1889,-90.1683,1.0,7.2,330.0,,'1111122,1111122,1111122' 
LUMCON,ioos:station:LUMCON:103:1,2011-02-03T14:00:00Z,30.1889,-90.1683,1.0,5.7,10.0,,'1111122,1111122,1111122' 
LUMCON,ioos:station:LUMCON:103:1,2011-02-03T15:00:00Z,30.1889,-90.1683,1.0,6.2,60.0,,'1111122,1111122,1111122' 
LUMCON,ioos:station:LUMCON:103:1,2011-02-03T19:00:00Z,30.1889,-90.1683,1.0,7.2,350.0,,'1111122,1111122,1111122' 
LUMCON,ioos:station:LUMCON:103:1,2011-02-03T20:00:00Z,30.1889,-90.1683,1.0,7.2,360.0,,'1111122,1111122,1111122' 
LUMCON,ioos:station:LUMCON:103:1,2011-02-03T22:00:00Z,30.1889,-90.1683,1.0,7.7,20.0,,'1111122,1111122,1111122' 
LUMCON,ioos:station:LUMCON:103:1,2011-02-03T23:00:00Z,30.1889,-90.1683,1.0,7.2,30.0,,'1111122,1111122,1111122' 
LUMCON,ioos:station:LUMCON:103:1,2011-02-04T00:00:00Z,30.1889,-90.1683,1.0,6.7,20.0,,'1111122,1111122,1111122' 
LUMCON,ioos:station:LUMCON:103:1,2011-02-04T02:00:00Z,30.1889,-90.1683,1.0,6.2,40.0,,'1111122,1111122,1111122' 
LUMCON,ioos:station:LUMCON:103:1,2011-02-04T03:00:00Z,30.1889,-90.1683,1.0,6.2,40.0,,'1111122,1111122,1111122' 
LUMCON,ioos:station:LUMCON:103:1,2011-02-04T06:00:00Z,30.1889,-90.1683,1.0,6.7,50.0,,'1111122,1111122,1111122' 
LUMCON,ioos:station:LUMCON:103:1,2011-02-04T09:00:00Z,30.1889,-90.1683,1.0,7.2,60.0,,'1111122,1111122,1111122' 
LUMCON,ioos:station:LUMCON:103:1,2011-02-04T12:00:00Z,30.1889,-90.1683,1.0,7.2,10.0,,'1111122,1111122,1111122' 
LUMCON,ioos:station:LUMCON:103:1,2011-02-04T16:00:00Z,30.1889,-90.1683,1.0,6.7,360.0,,'1111122,1111122,1111122' 
LUMCON,ioos:station:LUMCON:103:1,2011-02-04T19:00:00Z,30.1889,-90.1683,1.0,5.1,350.0,,'1111122,1111122,1111122' 
LUMCON,ioos:station:LUMCON:103:1,2011-02-05T01:00:00Z,30.1889,-90.1683,1.0,5.7,290.0,,'1111122,1111122,1111122' 
LUMCON,ioos:station:LUMCON:103:1,2011-02-05T04:00:00Z,30.1889,-90.1683,1.0,7.2,300.0,,'1111122,1111122,1111122' 
LUMCON,ioos:station:LUMCON:103:1,2011-02-05T07:00:00Z,30.1889,-90.1683,1.0,9.3,300.0,,'1111122,1111122,1111122' 
LUMCON,ioos:station:LUMCON:103:1,2011-02-05T09:00:00Z,30.1889,-90.1683,1.0,8.7,310.0,,'1111122,1111122,1111122' 
LUMCON,ioos:station:LUMCON:103:1,2011-02-05T10:00:00Z,30.1889,-90.1683,1.0,9.3,290.0,,'1111122,1111122,1111122' 
LUMCON,ioos:station:LUMCON:103:1,2011-02-05T14:00:00Z,30.1889,-90.1683,1.0,5.7,310.0,,'1111122,1111122,1111122' 
LUMCON,ioos:station:LUMCON:103:1,2011-02-05T15:00:00Z,30.1889,-90.1683,1.0,5.7,310.0,,'1111122,1111122,1111122' 
LUMCON,ioos:station:LUMCON:103:1,2011-02-05T18:00:00Z,30.1889,-90.1683,1.0,4.6,300.0,,'1111122,1111122,1111122' 
LUMCON,ioos:station:LUMCON:103:1,2011-02-05T22:00:00Z,30.1889,-90.1683,1.0,5.1,270.0,,'1111122,1111122,1111122' 
LUMCON,ioos:station:LUMCON:103:1,2011-02-06T01:00:00Z,30.1889,-90.1683,1.0,2.6,240.0,,'1111122,1111122,1111122' 
LUMCON,ioos:station:LUMCON:103:1,2011-02-06T02:00:00Z,30.1889,-90.1683,1.0,2.1,270.0,,'1111122,1111122,1111122' 
LUMCON,ioos:station:LUMCON:103:1,2011-02-06T04:00:00Z,30.1889,-90.1683,1.0,2.6,170.0,,'1111122,1111122,1111122' 
LUMCON,ioos:station:LUMCON:103:1,2011-02-06T05:00:00Z,30.1889,-90.1683,1.0,3.1,160.0,,'1111122,1111122,1111122' 
LUMCON,ioos:station:LUMCON:103:1,2011-02-06T06:00:00Z,30.1889,-90.1683,1.0,2.1,150.0,,'1111122,1111122,1111122' 
LUMCON,ioos:station:LUMCON:103:1,2011-02-06T07:00:00Z,30.1889,-90.1683,1.0,2.6,130.0,,'1111122,1111122,1111122' 
LUMCON,ioos:station:LUMCON:103:1,2011-02-06T08:00:00Z,30.1889,-90.1683,1.0,3.6,130.0,,'1111122,1111122,1111122' 
LUMCON,ioos:station:LUMCON:103:1,2011-02-06T09:00:00Z,30.1889,-90.1683,1.0,4.1,140.0,,'1111122,1111122,1111122' 
LUMCON,ioos:station:LUMCON:103:1,2011-02-06T10:00:00Z,30.1889,-90.1683,1.0,4.1,130.0,,'1111122,1111122,1111122' 
LUMCON,ioos:station:LUMCON:103:1,2011-02-06T11:00:00Z,30.1889,-90.1683,1.0,3.1,120.0,,'1111122,1111122,1111122' 
LUMCON,ioos:station:LUMCON:103:1,2011-02-06T12:00:00Z,30.1889,-90.1683,1.0,3.6,100.0,,'1111122,1111122,1111122' 
LUMCON,ioos:station:LUMCON:103:1,2011-02-06T13:00:00Z,30.1889,-90.1683,1.0,3.6,110.0,,'1111122,1111122,1111122' 
LUMCON,ioos:station:LUMCON:103:1,2011-02-06T14:00:00Z,30.1889,-90.1683,1.0,4.1,100.0,,'1111122,1111122,1111122' 
LUMCON,ioos:station:LUMCON:103:1,2011-02-06T18:00:00Z,30.1889,-90.1683,1.0,5.7,120.0,,'1111122,1111122,1111122' 
LUMCON,ioos:station:LUMCON:103:1,2011-02-07T18:00:00Z,30.1889,-90.1683,1.0,10.8,310.0,,'1111122,1111122,1111122' 
LUMCON,ioos:station:LUMCON:103:1,2011-02-07T19:00:00Z,30.1889,-90.1683,1.0,10.3,310.0,,'1111122,1111122,1111122' 
LUMCON,ioos:station:LUMCON:103:1,2011-02-07T20:00:00Z,30.1889,-90.1683,1.0,10.3,320.0,,'1111122,1111122,1111122' 
LUMCON,ioos:station:LUMCON:103:1,2011-02-07T23:00:00Z,30.1889,-90.1683,1.0,10.8,330.0,,'1111122,1111122,1111122' 
LUMCON,ioos:station:LUMCON:103:1,2011-02-08T22:00:00Z,30.1889,-90.1683,1.0,4.6,140.0,,'1111122,1111122,1111122' 
LUMCON,ioos:station:LUMCON:103:1,2011-02-09T19:00:00Z,30.1889,-90.1683,1.0,5.7,120.0,,'1111122,1111122,1111122' 
LUMCON,ioos:station:LUMCON:103:1,2011-02-09T21:00:00Z,30.1889,-90.1683,1.0,6.7,130.0,,'1111122,1111122,1111122' 
LUMCON,ioos:station:LUMCON:103:1,2011-02-10T01:00:00Z,30.1889,-90.1683,1.0,9.3,320.0,,'1111122,1111122,1111122' 
LUMCON,ioos:station:LUMCON:103:1,2011-02-10T08:00:00Z,30.1889,-90.1683,1.0,8.7,340.0,,'1111122,1111122,1111122' 
LUMCON,ioos:station:LUMCON:103:1,2011-02-10T09:00:00Z,30.1889,-90.1683,1.0,9.3,340.0,,'1111122,1111122,1111122' 
LUMCON,ioos:station:LUMCON:103:1,2011-02-10T10:00:00Z,30.1889,-90.1683,1.0,8.2,360.0,,'1111122,1111122,1111122' 
LUMCON,ioos:station:LUMCON:103:1,2011-02-10T13:00:00Z,30.1889,-90.1683,1.0,8.7,360.0,,'1111122,1111122,1111122' 
LUMCON,ioos:station:LUMCON:103:1,2011-02-10T14:00:00Z,30.1889,-90.1683,1.0,8.7,20.0,,'1111122,1111122,1111122' 
LUMCON,ioos:station:LUMCON:103:1,2011-02-10T18:00:00Z,30.1889,-90.1683,1.0,7.2,360.0,,'1111122,1111122,1111122' 
LUMCON,ioos:station:LUMCON:103:1,2011-02-10T21:00:00Z,30.1889,-90.1683,1.0,5.7,350.0,,'1111122,1111122,1111122' 
LUMCON,ioos:station:LUMCON:103:1,2011-02-11T00:00:00Z,30.1889,-90.1683,1.0,4.6,360.0,,'1111122,1111122,1111122' 
LUMCON,ioos:station:LUMCON:103:1,2011-02-11T01:00:00Z,30.1889,-90.1683,1.0,3.6,20.0,,'1111122,1111122,1111122' 
LUMCON,ioos:station:LUMCON:103:1,2011-02-11T02:00:00Z,30.1889,-90.1683,1.0,3.1,20.0,,'1111122,1111122,1111122' 
LUMCON,ioos:station:LUMCON:103:1,2011-02-11T07:00:00Z,30.1889,-90.1683,1.0,5.1,20.0,,'1111122,1111122,1111122' 
LUMCON,ioos:station:LUMCON:103:1,2011-02-11T10:00:00Z,30.1889,-90.1683,1.0,5.1,10.0,,'1111122,1111122,1111122' 
LUMCON,ioos:station:LUMCON:103:1,2011-02-11T13:00:00Z,30.1889,-90.1683,1.0,4.1,320.0,,'1111122,1111122,1111122' 
LUMCON,ioos:station:LUMCON:103:1,2011-02-11T16:00:00Z,30.1889,-90.1683,1.0,4.1,360.0,,'1111122,1111122,1111122' 
LUMCON,ioos:station:LUMCON:103:1,2011-02-11T17:00:00Z,30.1889,-90.1683,1.0,3.6,10.0,,'1111122,1111122,1111122' 
LUMCON,ioos:station:LUMCON:103:1,2011-02-11T18:00:00Z,30.1889,-90.1683,1.0,3.6,50.0,,'1111122,1111122,1111122' 
LUMCON,ioos:station:LUMCON:103:1,2011-02-11T21:00:00Z,30.1889,-90.1683,1.0,4.1,30.0,,'1111122,1111122,1111122' 
LUMCON,ioos:station:LUMCON:103:1,2011-02-11T22:00:00Z,30.1889,-90.1683,1.0,3.1,60.0,,'1111122,1111122,1111122' 
LUMCON,ioos:station:LUMCON:103:1,2011-02-12T00:00:00Z,30.1889,-90.1683,1.0,3.1,20.0,,'1111122,1111122,1111122' 
LUMCON,ioos:station:LUMCON:103:1,2011-02-12T01:00:00Z,30.1889,-90.1683,1.0,2.6,360.0,,'1111122,1111122,1111122' 
LUMCON,ioos:station:LUMCON:103:1,2011-02-12T02:00:00Z,30.1889,-90.1683,1.0,2.1,330.0,,'1111122,1111122,1111122' 
LUMCON,ioos:station:LUMCON:103:1,2011-02-12T03:00:00Z,30.1889,-90.1683,1.0,2.6,340.0,,'1111122,1111122,1111122' 
LUMCON,ioos:station:LUMCON:103:1,2011-02-12T05:00:00Z,30.1889,-90.1683,1.0,3.6,340.0,,'1111122,1111122,1111122' 
LUMCON,ioos:station:LUMCON:103:1,2011-02-12T07:00:00Z,30.1889,-90.1683,1.0,4.1,360.0,,'1111122,1111122,1111122' 
LUMCON,ioos:station:LUMCON:103:1,2011-02-12T09:00:00Z,30.1889,-90.1683,1.0,3.1,10.0,,'1111122,1111122,1111122' 
LUMCON,ioos:station:LUMCON:103:1,2011-02-12T13:00:00Z,30.1889,-90.1683,1.0,1.5,330.0,,'1111122,1111122,1111122' 
LUMCON,ioos:station:LUMCON:103:1,2011-02-12T14:00:00Z,30.1889,-90.1683,1.0,2.1,10.0,,'1111122,1111122,1111122' 
LUMCON,ioos:station:LUMCON:103:1,2011-02-12T16:00:00Z,30.1889,-90.1683,1.0,3.1,10.0,,'1111122,1111122,1111122' 
LUMCON,ioos:station:LUMCON:103:1,2011-02-12T18:00:00Z,30.1889,-90.1683,1.0,2.1,110.0,,'1111122,1111122,1111122' 
LUMCON,ioos:station:LUMCON:103:1,2011-02-12T19:00:00Z,30.1889,-90.1683,1.0,2.6,230.0,,'1111122,1111122,1111122' 
LUMCON,ioos:station:LUMCON:103:1,2011-02-12T20:00:00Z,30.1889,-90.1683,1.0,4.1,170.0,6.2,'11111222,11111222,11111222' 
LUMCON,ioos:station:LUMCON:103:1,2011-02-12T21:00:00Z,30.1889,-90.1683,1.0,4.1,180.0,7.2,'11111222,11111222,11111222' 
LUMCON,ioos:station:LUMCON:103:1,2011-02-12T22:00:00Z,30.1889,-90.1683,1.0,4.1,200.0,5.7,'11111222,11111222,11111222' 
LUMCON,ioos:station:LUMCON:103:1,2011-02-12T23:00:00Z,30.1889,-90.1683,1.0,4.6,230.0,5.7,'11111222,11111222,11111222' 
LUMCON,ioos:station:LUMCON:103:1,2011-02-13T00:00:00Z,30.1889,-90.1683,1.0,4.1,230.0,5.1,'11111222,11111222,11111222' 
LUMCON,ioos:station:LUMCON:103:1,2011-02-13T01:00:00Z,30.1889,-90.1683,1.0,3.6,240.0,5.1,'11111222,11111222,11111222' 
LUMCON,ioos:station:LUMCON:103:1,2011-02-13T02:00:00Z,30.1889,-90.1683,1.0,3.6,250.0,4.6,'11111222,11111222,11111222' 
LUMCON,ioos:station:LUMCON:103:1,2011-02-13T03:00:00Z,30.1889,-90.1683,1.0,2.6,250.0,3.1,'11111222,11111222,11111222' 
LUMCON,ioos:station:LUMCON:103:1,2011-02-13T04:00:00Z,30.1889,-90.1683,1.0,2.1,230.0,3.1,'11111222,11111222,11111222' 
LUMCON,ioos:station:LUMCON:103:1,2011-02-13T05:00:00Z,30.1889,-90.1683,1.0,2.1,240.0,3.1,'11111222,11111222,11111222' 
LUMCON,ioos:station:LUMCON:103:1,2011-02-13T06:00:00Z,30.1889,-90.1683,1.0,3.1,250.0,3.6,'11111222,11111222,11111222' 
LUMCON,ioos:station:LUMCON:103:1,2011-02-13T07:00:00Z,30.1889,-90.1683,1.0,2.6,280.0,3.6,'11111222,11111222,11111222' 
LUMCON,ioos:station:LUMCON:103:1,2011-02-13T08:00:00Z,30.1889,-90.1683,1.0,3.1,280.0,4.1,'11111222,11111222,11111222' 
LUMCON,ioos:station:LUMCON:103:1,2011-02-13T09:00:00Z,30.1889,-90.1683,1.0,3.6,290.0,,'1111122,1111122,1111122' 
LUMCON,ioos:station:LUMCON:103:1,2011-02-13T10:00:00Z,30.1889,-90.1683,1.0,2.6,300.0,3.6,'11111222,11111222,11111222' 
LUMCON,ioos:station:LUMCON:103:1,2011-02-13T11:00:00Z,30.1889,-90.1683,1.0,2.1,310.0,3.1,'11111222,11111222,11111222' 
LUMCON,ioos:station:LUMCON:103:1,2011-02-13T12:00:00Z,30.1889,-90.1683,1.0,1.5,300.0,3.6,'11111222,11111222,11111222' 
LUMCON,ioos:station:LUMCON:103:1,2011-02-13T13:00:00Z,30.1889,-90.1683,1.0,1.0,290.0,,'1111122,1111122,1111122' 
LUMCON,ioos:station:LUMCON:103:1,2011-02-13T14:00:00Z,30.1889,-90.1683,1.0,0.5,270.0,,'1111122,1111122,1111122' 
LUMCON,ioos:station:LUMCON:103:1,2011-02-13T15:00:00Z,30.1889,-90.1683,1.0,0.5,330.0,,'1111122,1111122,1111122' 
LUMCON,ioos:station:LUMCON:103:1,2011-02-13T16:00:00Z,30.1889,-90.1683,1.0,1.5,150.0,,'1111122,1111122,1111122' 
LUMCON,ioos:station:LUMCON:103:1,2011-02-13T17:00:00Z,30.1889,-90.1683,1.0,2.6,150.0,,'1111122,1111122,1111122' 
LUMCON,ioos:station:LUMCON:103:1,2011-02-13T18:00:00Z,30.1889,-90.1683,1.0,3.1,160.0,,'1111122,1111122,1111122' 
LUMCON,ioos:station:LUMCON:103:1,2011-02-13T19:00:00Z,30.1889,-90.1683,1.0,3.1,190.0,,'1111122,1111122,1111122' 
LUMCON,ioos:station:LUMCON:103:1,2011-02-13T20:00:00Z,30.1889,-90.1683,1.0,3.6,200.0,,'1111122,1111122,1111122' 
LUMCON,ioos:station:LUMCON:103:1,2011-02-13T21:00:00Z,30.1889,-90.1683,1.0,4.1,210.0,,'1111122,1111122,1111122' 
LUMCON,ioos:station:LUMCON:103:1,2011-02-13T22:00:00Z,30.1889,-90.1683,1.0,4.1,210.0,,'1111122,1111122,1111122' 
LUMCON,ioos:station:LUMCON:103:1,2011-02-13T23:00:00Z,30.1889,-90.1683,1.0,3.6,210.0,,'1111122,1111122,1111122' 
LUMCON,ioos:station:LUMCON:103:1,2011-02-14T00:00:00Z,30.1889,-90.1683,1.0,3.1,210.0,,'1111122,1111122,1111122' 
LUMCON,ioos:station:LUMCON:103:1,2011-02-14T01:00:00Z,30.1889,-90.1683,1.0,3.1,220.0,,'1111122,1111122,1111122' 
LUMCON,ioos:station:LUMCON:103:1,2011-02-14T02:00:00Z,30.1889,-90.1683,1.0,3.1,210.0,,'1111122,1111122,1111122' 
LUMCON,ioos:station:LUMCON:103:1,2011-02-14T03:00:00Z,30.1889,-90.1683,1.0,3.1,190.0,,'1111122,1111122,1111122' 
LUMCON,ioos:station:LUMCON:103:1,2011-02-14T04:00:00Z,30.1889,-90.1683,1.0,3.1,180.0,,'1111122,1111122,1111122' 
LUMCON,ioos:station:LUMCON:103:1,2011-02-14T05:00:00Z,30.1889,-90.1683,1.0,3.1,180.0,,'1111122,1111122,1111122' 
LUMCON,ioos:station:LUMCON:103:1,2011-02-14T06:00:00Z,30.1889,-90.1683,1.0,3.1,180.0,,'1111122,1111122,1111122' 
LUMCON,ioos:station:LUMCON:103:1,2011-02-14T07:00:00Z,30.1889,-90.1683,1.0,3.6,180.0,,'1111122,1111122,1111122' 
LUMCON,ioos:station:LUMCON:103:1,2011-02-14T08:00:00Z,30.1889,-90.1683,1.0,3.1,180.0,,'1111122,1111122,1111122' 
LUMCON,ioos:station:LUMCON:103:1,2011-02-14T09:00:00Z,30.1889,-90.1683,1.0,1.5,190.0,,'1111122,1111122,1111122' 
LUMCON,ioos:station:LUMCON:103:1,2011-02-14T10:00:00Z,30.1889,-90.1683,1.0,1.5,170.0,,'1111122,1111122,1111122' 
LUMCON,ioos:station:LUMCON:103:1,2011-02-14T11:00:00Z,30.1889,-90.1683,1.0,1.5,210.0,,'1111122,1111122,1111122' 
LUMCON,ioos:station:LUMCON:103:1,2011-02-14T12:00:00Z,30.1889,-90.1683,1.0,1.5,230.0,,'1111122,1111122,1111122' 
LUMCON,ioos:station:LUMCON:103:1,2011-02-14T13:00:00Z,30.1889,-90.1683,1.0,1.0,340.0,,'1111122,1111122,1111122' 
LUMCON,ioos:station:LUMCON:103:1,2011-02-14T14:00:00Z,30.1889,-90.1683,1.0,0.5,220.0,,'1111122,1111122,1111122' 
LUMCON,ioos:station:LUMCON:103:1,2011-02-14T15:00:00Z,30.1889,-90.1683,1.0,1.5,150.0,,'1111122,1111122,1111122' 
LUMCON,ioos:station:LUMCON:103:1,2011-02-14T16:00:00Z,30.1889,-90.1683,1.0,2.6,180.0,,'1111122,1111122,1111122' 
LUMCON,ioos:station:LUMCON:103:1,2011-02-14T17:00:00Z,30.1889,-90.1683,1.0,3.1,180.0,,'1111122,1111122,1111122' 
LUMCON,ioos:station:LUMCON:103:1,2011-02-14T18:00:00Z,30.1889,-90.1683,1.0,4.1,200.0,,'1111122,1111122,1111122' 
LUMCON,ioos:station:LUMCON:103:1,2011-02-14T19:00:00Z,30.1889,-90.1683,1.0,4.1,210.0,,'1111122,1111122,1111122' 
LUMCON,ioos:station:LUMCON:103:1,2011-02-14T20:00:00Z,30.1889,-90.1683,1.0,4.1,200.0,,'1111122,1111122,1111122' 
LUMCON,ioos:station:LUMCON:103:1,2011-02-14T21:00:00Z,30.1889,-90.1683,1.0,4.6,200.0,,'1111122,1111122,1111122' 
LUMCON,ioos:station:LUMCON:103:1,2011-02-14T22:00:00Z,30.1889,-90.1683,1.0,5.1,180.0,,'1111122,1111122,1111122' 
LUMCON,ioos:station:LUMCON:103:1,2011-02-14T23:00:00Z,30.1889,-90.1683,1.0,4.6,180.0,,'1111122,1111122,1111122' 
LUMCON,ioos:station:LUMCON:103:1,2011-02-15T00:00:00Z,30.1889,-90.1683,1.0,4.1,180.0,,'1111122,1111122,1111122' 
LUMCON,ioos:station:LUMCON:103:1,2011-02-15T01:00:00Z,30.1889,-90.1683,1.0,4.6,200.0,,'1111122,1111122,1111122' 
LUMCON,ioos:station:LUMCON:103:1,2011-02-15T02:00:00Z,30.1889,-90.1683,1.0,4.1,210.0,,'1111122,1111122,1111122' 
LUMCON,ioos:station:LUMCON:103:1,2011-02-15T03:00:00Z,30.1889,-90.1683,1.0,4.1,210.0,,'1111122,1111122,1111122' 
LUMCON,ioos:station:LUMCON:103:1,2011-02-15T04:00:00Z,30.1889,-90.1683,1.0,3.1,220.0,,'1111122,1111122,1111122' 
LUMCON,ioos:station:LUMCON:103:1,2011-02-15T05:00:00Z,30.1889,-90.1683,1.0,3.6,220.0,,'1111122,1111122,1111122' 
LUMCON,ioos:station:LUMCON:103:1,2011-02-15T06:00:00Z,30.1889,-90.1683,1.0,2.6,230.0,,'1111122,1111122,1111122' 
LUMCON,ioos:station:LUMCON:103:1,2011-02-15T07:00:00Z,30.1889,-90.1683,1.0,2.1,160.0,,'1111122,1111122,1111122' 
LUMCON,ioos:station:LUMCON:103:1,2011-02-15T08:00:00Z,30.1889,-90.1683,1.0,2.1,190.0,,'1111122,1111122,1111122' 
LUMCON,ioos:station:LUMCON:103:1,2011-02-15T09:00:00Z,30.1889,-90.1683,1.0,2.1,210.0,,'1111122,1111122,1111122' 
LUMCON,ioos:station:LUMCON:103:1,2011-02-15T10:00:00Z,30.1889,-90.1683,1.0,2.1,210.0,,'1111122,1111122,1111122' 
LUMCON,ioos:station:LUMCON:103:1,2011-02-15T11:00:00Z,30.1889,-90.1683,1.0,2.1,220.0,,'1111122,1111122,1111122' 
LUMCON,ioos:station:LUMCON:103:1,2011-02-15T12:00:00Z,30.1889,-90.1683,1.0,1.5,240.0,,'1111122,1111122,1111122' 
LUMCON,ioos:station:LUMCON:103:1,2011-02-15T13:00:00Z,30.1889,-90.1683,1.0,1.0,260.0,,'1111122,1111122,1111122' 
LUMCON,ioos:station:LUMCON:103:1,2011-02-15T14:00:00Z,30.1889,-90.1683,1.0,1.0,160.0,,'1111122,1111122,1111122' 
LUMCON,ioos:station:LUMCON:103:1,2011-02-15T15:00:00Z,30.1889,-90.1683,1.0,1.5,140.0,,'1111122,1111122,1111122' 
LUMCON,ioos:station:LUMCON:103:1,2011-02-15T16:00:00Z,30.1889,-90.1683,1.0,2.6,140.0,,'1111122,1111122,1111122' 
LUMCON,ioos:station:LUMCON:103:1,2011-02-15T17:00:00Z,30.1889,-90.1683,1.0,2.6,140.0,,'1111122,1111122,1111122' 
LUMCON,ioos:station:LUMCON:103:1,2011-02-15T18:00:00Z,30.1889,-90.1683,1.0,3.1,160.0,,'1111122,1111122,1111122' 
LUMCON,ioos:station:LUMCON:103:1,2011-02-15T19:00:00Z,30.1889,-90.1683,1.0,3.6,150.0,,'1111122,1111122,1111122' 
LUMCON,ioos:station:LUMCON:103:1,2011-02-15T20:00:00Z,30.1889,-90.1683,1.0,2.6,160.0,,'1111122,1111122,1111122' 
LUMCON,ioos:station:LUMCON:103:1,2011-02-15T21:00:00Z,30.1889,-90.1683,1.0,2.6,160.0,,'1111122,1111122,1111122' 
LUMCON,ioos:station:LUMCON:103:1,2011-02-15T22:00:00Z,30.1889,-90.1683,1.0,3.1,170.0,,'1111122,1111122,1111122' 
LUMCON,ioos:station:LUMCON:103:1,2011-02-15T23:00:00Z,30.1889,-90.1683,1.0,3.6,150.0,,'1111122,1111122,1111122' 
LUMCON,ioos:station:LUMCON:103:1,2011-02-16T00:00:00Z,30.1889,-90.1683,1.0,3.6,150.0,,'1111122,1111122,1111122' 
LUMCON,ioos:station:LUMCON:103:1,2011-02-16T01:00:00Z,30.1889,-90.1683,1.0,3.6,160.0,,'1111122,1111122,1111122' 
LUMCON,ioos:station:LUMCON:103:1,2011-02-16T02:00:00Z,30.1889,-90.1683,1.0,4.1,170.0,,'1111122,1111122,1111122' 
LUMCON,ioos:station:LUMCON:103:1,2011-02-16T03:00:00Z,30.1889,-90.1683,1.0,4.1,180.0,,'1111122,1111122,1111122' 
LUMCON,ioos:station:LUMCON:103:1,2011-02-16T04:00:00Z,30.1889,-90.1683,1.0,3.6,190.0,,'1111122,1111122,1111122' 